Regional Weather Roundup
Issued by NWS

Home | Current Version | Previous Version | Graphics & Text | Print | Product List | Glossary On
Versions: 1 2 3 4 5 6 7 8 9 10 11 12 13 14 15 16 17 18 19 20 21 22 23 24 25 26 27 28 29 30 31 32 33 34 35 36 37 38 39 40 41 42 43 44 45 46 47 48 49 50
000
ASUS43 KMKX 160511
RWRWI

WISCONSIN REGIONAL WEATHER ROUNDUP
NATIONAL WEATHER SERVICE MILWAUKEE/SULLIVAN WI
1100 PM CST SUN JAN 15 2017

NOTE: "FAIR" INDICATES FEW OR NO CLOUDS BELOW 12,000 FEET WITH NO
SIGNIFICANT WEATHER AND/OR OBSTRUCTIONS TO VISIBILITY.

WIZ001-002-006>008-014>016-023>028-160600-
NORTHWEST WISCONSIN

CITY           SKY/WX    TMP DP  RH WIND       PRES   REMARKS
SUPERIOR ARPT  CLOUDY    21  15  78 SW6       30.16S WCI  14
ASHLAND        CLOUDY    21  13  71 S9        30.16R WCI  11
HAYWARD        CLOUDY    13   9  84 S5        30.18R WCI   5
SIREN          CLOUDY    16  14  91 S5        30.19S WCI   9
CUMBERLAND     CLOUDY     9   5  85 S6        30.20S FOG     WCI  -1
RICE LAKE      CLOUDY     2  -1  85 CALM      30.23S
CHETEK         CLOUDY     4   1  90 MISG      30.22S
LADYSMITH      CLOUDY    11   8  85 S5        30.23R WCI   3
EAU CLAIRE     CLOUDY    13  11  92 CALM      30.24S FOG
MENOMONIE      CLOUDY     8   5  89 CALM      30.24S
NEW RICHMOND   CLOUDY    15  12  85 S7        30.22F WCI   6
OSCEOLA        CLOUDY    18  14  85 S9        30.24F WCI   7
$$

WIZ003>005-009-010-017-018-160600-
NORTH CENTRAL WISCONSIN

CITY           SKY/WX    TMP DP  RH WIND       PRES   REMARKS
MANITOWISH WTR CLOUDY    17  11  74 SW8       30.15S WCI   7
ARBOR VITAE    CLOUDY    14   9  81 S5        30.16S WCI   6
WOODRUFF       CLOUDY    14   9  81 S5        30.16S WCI   6
RHINELANDER    PTCLDY    17  10  74 SW9       30.18S WCI   6
EAGLE RIVER    CLEAR     16   8  72 SW6       30.15S WCI   7
LAND O LAKES   CLOUDY    16  10  78 SW3       30.16R
PHILLIPS       CLOUDY    11   7  83 CALM      30.18S
TOMAHAWK       CLOUDY    10   7  88 CALM      30.20S
MEDFORD        CLOUDY    11   7  85 S3        30.20S
MERRILL        CLOUDY    -2  -5  84 CALM        N/A
$$

WIZ029-030-035-036-043>047-160600-
CENTRAL WISCONSIN

CITY           SKY/WX    TMP DP  RH WIND       PRES   REMARKS
WAUSAU         PTCLDY     9   6  88 CALM      30.22F
MOSINEE        CLOUDY    12  12 100 CALM      30.24S FOG
MARSHFIELD     CLOUDY     9   5  84 SW7       30.22S FOG     WCI  -2
STEVENS POINT  CLOUDY     1  -2  88 CALM      30.25F
WAUPACA        CLOUDY    10   6  84 CALM      30.27F
WAUTOMA        CLOUDY     8   5  87 CALM      30.28S
WISC RAPIDS    CLOUDY     9   6  88 CALM      30.26F
CAMP DOUGLAS   CLOUDY    13  10  87 E5        30.26S WCI   5
$$

WIZ011>013-019>022-031-037>040-048>050-160600-
NORTHEAST WISCONSIN

CITY           SKY/WX    TMP DP  RH WIND       PRES   REMARKS
ANTIGO         CLOUDY    -1  -4  89 CALM      30.21R
SHAWANO        CLOUDY    14  10  82 CALM      30.27S
OCONTO         PTCLDY    15   8  76 SW3       30.26S
STURGEON BAY   CLOUDY    17  11  77 SW7       30.26F WCI   8
GREEN BAY      CLOUDY    17  12  80 SW6       30.28S WCI   9
MANITOWOC      MOCLDY     9   6  88 CALM      30.30S
APPLETON       CLOUDY    18  10  73 SW7       30.25F WCI   8
CLINTONVILLE   CLOUDY     7   3  85 SW3       30.27S
OSHKOSH        CLOUDY    14   8  77 CALM      30.28S
$$

WIZ032>034-041-042-053>061-160600-
SOUTHWEST WISCONSIN

CITY           SKY/WX    TMP DP  RH WIND       PRES   REMARKS
LA CROSSE      CLOUDY   N/A N/A N/A CALM      30.27F
SPARTA         CLOUDY     9   7  93 CALM      30.28S
VIROQUA        CLOUDY    23  16  75 CALM      30.24S
BOSCOBEL       CLOUDY    20  16  84 CALM      30.29F FOG
PRAIRIE DU CHI CLOUDY    21  17  82 CALM      30.28S
PLATTEVILLE    CLOUDY    27  22  81 SE5       30.26F WCI  22
$$

WIZ056-057-062-063-064-067-068-160600-
SOUTH CENTRAL WISCONSIN

CITY           SKY/WX    TMP DP  RH WIND       PRES   REMARKS
REEDSBURG      CLOUDY    17  13  86 CALM      30.27F
BARABOO/DELLS  CLOUDY    19  13  79 CALM      30.26F
LONE ROCK      CLOUDY    18  14  84 CALM      30.29S
MINERAL POINT  PTCLDY    27  21  80 SE3       30.25F
MADISON        CLOUDY    21  16  81 CALM      30.27F
MIDDLETON      CLOUDY    23  19  85 CALM      30.28S
WATERTOWN      PTCLDY    21  18  88 CALM      30.28F
MONROE         CLOUDY    28  19  69 S7        30.26F WCI  21
JANESVILLE     CLOUDY    27  23  86 CALM      30.28F
$$

WIZ051-052-058>065-066-070>072-160600-
SOUTHEAST WISCONSIN

CITY           SKY/WX    TMP DP  RH WIND       PRES   REMARKS
MILWAUKEE      CLOUDY    27  18  69 S3        30.29F
WAUKESHA       CLOUDY    23  18  80 CALM      30.29F
MILWAUKEE/TIMM CLOUDY    23  18  80 CALM      30.31S
RACINE         CLOUDY    26  18  71 SW3       30.31F
KENOSHA        PTCLDY    24  19  81 S3        30.30F HAZE
FOND DU LAC    CLOUDY    10   5  80 CALM      30.29R
SHEBOYGAN      CLOUDY    13   8  81 W3        30.29S
WEST BEND      CLOUDY    18  16  93 CALM      30.29R
JUNEAU         CLOUDY    20  15  79 S5        30.29S WCI  14
$$

LSZ147-162-160600-
LAKE SUPERIOR

STATION/POSITION TIME  TEMP    WIND        PRES    WAVE
                       AIR SEA DIR/SP/G            HT/PER
                 (UTC) (F)     (DEG/KT/KT) (MB)    (FT/S)
DEVILS ISLAND    0500   29     230/ 21/ 25 1021.1R
PORT WING        0440   25     200/  7/ 10 1021.0S
SAXON HARBOR     0440   27     200/ 10/ 16 1020.7R
$$

LMZ867-665-643>646-160600-
LAKE MICHIGAN

STATION/POSITION TIME  TEMP    WIND        PRES    WAVE
                       AIR SEA DIR/SP/G            HT/PER
                 (UTC) (F)     (DEG/KT/KT) (MB)    (FT/S)
NORTHPORT PIER   0440   24     220/  2/  7 1023.7F
SISTER BAY       0435   24     230/  8/ 10   N/A
ALGOMA LAKESHORE 0438          230/  8/  9   N/A
KEWAUNEE LAKESHO 0442   18     230/  1/  2 1024.9S
SHEBOYGAN LAKESH 0500   24     240/  2/  3 1026.8S
PORT WASHINGTON  0440   22     250/  3/  3 1026.8F
MILWAUKEE LAKESH 0450   29     220/  2/  2   N/A
KENOSHA   LAKESH 0500   29     220/  4/  4 1026.4
$$

TC  - TEMPERATURE IN CELSIUS
VSB - VISIBILITY IN STATUTE MILES
WCI - WIND CHILL INDEX
HX  - HEAT INDEX





USA.gov is the U.S. government's official web portal to all federal, state and local government web resources and services.